Location: Huesca
(42.1318°N, 0.4078°W)
Time: 14:22:51
(UTC+02:00)

Altair - Visible Passes

Search period start: 19 July 2024 00:00
Search period end: 29 July 2024 00:00
Orbit: 1502 x 1682 km, 47.2° (Epoch: 18 July)

Date Brightness Start Highest point End Pass type
(mag) Time Alt. Az. Time Alt. Az. Time Alt. Az.
19 Jul 7.6 00:19:03 10° WNW 00:28:14 69° NNE 00:37:28 10° E visible
19 Jul 7.3 02:23:59 10° WNW 02:33:04 68° SW 02:37:23 35° SE visible
19 Jul 8.4 04:30:01 10° W 04:35:12 21° WSW 04:35:12 21° WSW visible
19 Jul 7.7 23:53:49 10° WNW 00:02:59 67° N 00:12:11 10° E visible
20 Jul 7.3 01:58:47 10° WNW 02:07:54 72° SSW 02:11:41 40° SE visible
20 Jul 8.4 04:04:34 10° W 04:09:34 23° WSW 04:09:34 23° WSW visible
20 Jul 7.7 23:28:33 10° WNW 23:37:44 66° N 23:46:54 10° E visible
21 Jul 7.3 01:33:34 10° WNW 01:42:44 76° SSW 01:46:29 41° SE visible
21 Jul 8.4 03:39:09 10° WNW 03:44:24 25° WSW 03:44:24 25° WSW visible
21 Jul 7.8 23:03:17 10° WNW 23:12:29 65° N 23:21:38 10° E visible
22 Jul 7.3 01:08:21 10° WNW 01:17:33 80° SSW 01:21:34 39° SE visible
22 Jul 8.3 03:13:47 10° WNW 03:19:30 27° WSW 03:19:30 27° WSW visible
22 Jul 7.8 22:38:01 10° WNW 22:47:13 65° N 22:56:21 10° E visible
23 Jul 7.3 00:43:09 10° WNW 00:52:22 84° SSW 00:56:50 36° ESE visible
23 Jul 8.2 02:48:26 10° WNW 02:54:46 31° WSW 02:54:46 31° WSW visible
23 Jul 7.8 22:12:44 10° W 22:21:57 64° N 22:31:05 10° E visible
24 Jul 7.3 00:17:56 10° WNW 00:27:10 88° SSW 00:32:13 32° ESE visible
24 Jul 8.0 02:23:07 10° WNW 02:30:10 34° WSW 02:30:10 34° WSW visible
24 Jul 7.9 21:47:27 10° W 21:56:42 64° N 22:05:49 10° E visible
24 Jul 7.4 23:52:42 10° WNW 00:01:58 89° NNE 00:07:42 27° ESE visible
25 Jul 7.9 01:57:49 10° WNW 02:05:40 38° SW 02:05:40 38° SW visible
25 Jul 7.4 23:27:29 10° WNW 23:36:46 85° NNE 23:43:17 22° ESE visible
26 Jul 7.8 01:32:32 10° WNW 01:40:53 41° SW 01:41:15 41° SW visible
26 Jul 7.5 23:02:15 10° WNW 23:11:33 82° NNE 23:18:55 18° ESE visible
27 Jul 7.7 01:07:16 10° WNW 01:15:47 45° SW 01:16:53 43° SSW visible
27 Jul 7.5 22:37:01 10° WNW 22:46:20 79° NNE 22:54:37 14° ESE visible
28 Jul 7.7 00:42:00 10° WNW 00:50:40 48° SW 00:52:35 43° S visible
28 Jul 7.6 22:11:47 10° WNW 22:21:06 77° NNE 22:30:18 10° ESE visible
